Location: Sawyer Lake
(45.2517°N, 88.7550°W)
Time: 01:09:56
(UTC-05:00)

Daily predictions for brighter satellites

Satellite Brightness Start Highest point End
(mag) Time Altitude Azimuth Time Altitude Azimuth Time Altitude Azimuth
Cosmos 2151 4.2 00:03:28 27° E 00:03:56 27° E 00:07:34 10° NNE
Cosmos 405 Rocket 4.2 00:02:33 10° NNE 00:05:39 25° ENE 00:06:14 24° E
Meteor 1-27 4.4 00:00:09 10° N 00:05:58 67° ENE 00:08:18 37° SSE
SL-19 R/B 4.1 00:03:11 10° NNE 00:08:48 78° ESE 00:10:47 41° S
Cosmos 1703 3.2 00:09:11 61° SE 00:09:31 65° E 00:13:23 10° NNE
Cosmos 1709 Rocket 4.3 00:04:43 10° NNW 00:10:51 58° W 00:13:42 31° SSW
Cosmos 1992 Rocket 3.9 00:10:13 10° NNW 00:15:27 82° ENE 00:17:10 44° SSE
ATLAS 2AS CENTAUR R/B 3.8 00:08:57 10° WSW 00:16:40 52° NW 00:24:36 10° NNE
ALOS 2 2.5 00:16:07 54° SSE 00:17:04 80° ENE 00:21:29 10° N
CZ-4B R/B 3.8 00:14:37 10° NNE 00:19:48 54° E 00:21:12 42° SSE
Terra 4.2 00:18:31 10° WSW 00:20:49 13° W 00:23:07 10° WNW
Cosmos 2074 Rocket 4.0 00:16:01 10° N 00:22:17 76° E 00:24:52 38° SSE
SL-8 R/B 3.6 00:18:01 10° WSW 00:22:52 83° SSE 00:27:43 10° ENE
NOSS 3-2 (C) 4.0 00:17:01 10° NW 00:24:32 70° WSW 00:28:32 33° SSE
Cosmos 2369 Rocket 4.4 00:26:05 10° ESE 00:27:14 11° E 00:28:40 10° E
DELTA 2 DEB (DPAF) 4.1 00:28:08 56° S 00:29:02 79° WSW 00:33:31 10° NNW
Cosmos 2297 3.9 00:28:25 43° SSE 00:29:59 57° ESE 00:35:35 10° NNE
CZ-4C R/B 3.2 00:31:46 67° S 00:32:17 85° WSW 00:36:16 10° NNW
Cosmos 2058 2.8 00:36:01 66° SSE 00:36:31 76° E 00:40:40 10° NNE
Cosmos 2082 Rocket 2.1 00:33:10 10° NNW 00:38:55 81° WSW 00:40:50 44° SSE
Cosmos 1809 Rocket 4.4 00:33:17 10° N 00:39:24 79° E 00:41:45 40° SSE
Cosmos 407 Rocket 4.0 00:40:19 39° SE 00:41:16 43° ESE 00:46:08 10° NNE
Cosmos 1766 Rocket 3.9 00:40:29 44° SW 00:41:34 58° WNW 00:46:00 10° N
Cosmos 1408 Rocket 3.8 00:44:52 49° SW 00:45:49 64° W 00:50:16 10° N
Cosmos 2327 Rocket 4.4 00:40:56 10° N 00:47:10 87° W 00:49:37 40° S
Cosmos 1610 Rocket 4.5 00:42:08 10° N 00:48:27 80° E 00:50:55 39° SSE
Cosmos 1190 Rocket 4.3 00:48:01 43° SE 00:49:10 52° ESE 00:54:15 10° NNE
Cosmos 1515 Rocket 3.5 00:45:52 10° N 00:50:18 81° E 00:51:05 60° SSE
Lacrosse 5 3.7 00:47:13 10° W 00:51:43 31° NNW 00:56:14 10° NE
Meteor 2-10 Rocket 3.6 00:46:40 10° N 00:51:44 69° ENE 00:53:22 43° SE
Cosmos 1833 Rocket 2.9 00:47:03 10° NNW 00:52:33 56° WSW 00:54:01 43° SSW
ATLAS 5 CENTAUR R/B 1.6 00:51:43 52° SW 00:52:51 89° SE 00:57:50 10° NE
NOSS 3-4 (A) 3.7 00:48:51 21° SW 00:53:04 68° NW 00:59:34 10° NE
NOSS 3-4 (C) 3.7 00:49:00 22° SW 00:53:09 69° NW 00:59:40 10° NE
NOSS 2-2 (E) 3.6 00:53:43 45° WSW 00:54:47 67° NW 00:59:23 10° NE
Cosmos 2184 Rocket 4.1 00:48:32 10° NNW 00:54:50 66° W 00:57:16 38° SSW
H-2A R/B 2.1 00:57:47 55° SW 00:58:09 57° W 01:02:13 10° NNW
Cosmos 1151 Rocket 2.9 00:55:52 10° NNW 01:00:11 78° W 01:00:46 64° SSW
Cosmos 2228 Rocket 3.0 00:56:19 10° N 01:00:50 82° W 01:01:36 60° S
Cosmos 2154 Rocket 4.0 00:54:46 10° N 01:01:10 83° E 01:03:47 39° SSE
SL-27 R/B 3.3 00:58:08 10° NNW 01:01:16 40° W 01:01:16 40° W
Cosmos 1461 4.0 00:59:52 25° WSW 01:02:16 48° NW 01:06:56 10° NNE
Cosmos 1455 3.7 01:04:59 10° NW 01:08:05 24° W 01:08:11 24° W
Cosmos 2341 Rocket 4.2 01:02:19 10° N 01:08:39 65° E 01:11:37 33° SSE
JB-3 4.3 01:06:57 10° N 01:10:51 67° WNW 01:11:17 60° WSW
CENTAUR R/B 3.1 01:03:28 10° NW 01:11:23 71° WSW 01:16:04 30° SSE
USA 234 3.2 01:05:17 10° NE 01:11:53 86° SE 01:16:09 24° SW
deb Chang Zheng 4 3.5 01:07:45 10° NNE 01:12:10 83° WNW 01:13:03 57° SSW
Meteor 2-14 Rocket 4.4 01:06:58 10° NNW 01:13:03 77° W 01:15:17 41° S
ADEOS Rocket 3.7 01:13:37 10° N 01:19:03 46° WNW 01:22:18 25° SW
Mayak 0.6 01:20:52 10° NNW 01:24:10 23° WNW 01:25:43 19° W
NOSS 2-2 (D) 4.4 01:22:40 28° W 01:24:22 44° NW 01:28:47 10° NNE
BREEZE-M DEB (TANK) 4.5 01:08:11 10° WSW 01:24:59 70° SSE 01:29:39 10° ENE
Cosmos 1943 Rocket 3.5 01:23:39 22° SE 01:25:17 25° ESE 01:29:45 10° NE
Cosmos 1892 3.8 01:25:36 30° ESE 01:26:02 31° E 01:29:25 10° NNE
Cosmos 962 Rocket 4.4 01:23:30 10° N 01:29:46 87° W 01:32:21 38° S
RESURS DK-1 3.1 01:29:53 35° WSW 01:31:04 45° WNW 01:35:05 10° NNE
Cosmos 1743 Rocket 4.4 01:34:38 33° WSW 01:35:40 38° WNW 01:39:49 10° N
SL-8 Rocket 4.2 01:29:26 10° N 01:35:42 69° E 01:38:56 30° SSE
Cosmos 1295 Rocket 4.4 01:31:06 10° N 01:37:20 80° W 01:39:58 37° S
Cosmos 2278 Rocket 4.2 01:33:09 10° W 01:37:30 22° NW 01:41:52 10° N
Meteor 2-8 Rocket 4.4 01:35:25 38° S 01:37:58 81° E 01:44:09 10° N
Cosmos 1869 4.2 01:36:23 10° NNW 01:40:03 35° W 01:40:16 35° W
BREEZE-M DEB (TANK) 3.3 01:38:10 10° WNW 01:40:20 32° N 01:42:31 10° ENE
CZ-2D R/B 4.3 01:37:26 10° NE 01:40:27 15° E 01:43:29 10° SE
Cosmos 2151 4.4 01:40:03 24° W 01:41:11 27° WNW 01:44:51 10° NNW
Cosmos 405 Rocket 4.3 01:38:40 10° NW 01:41:24 22° W 01:41:24 22° W
Timation 2 Rocket 4.2 01:36:05 10° NNW 01:42:46 77° ENE 01:47:40 21° SE
Cosmos 1805 Rocket 3.5 01:44:13 53° S 01:45:11 79° E 01:49:36 10° N
Cosmos 304 Rocket 4.4 01:42:48 10° NNW 01:47:30 52° ENE 01:50:15 23° SE
SL-16 R/B 3.9 01:45:03 10° SE 01:50:30 34° ENE 01:55:56 10° N
Cosmos 371 Rocket 3.5 01:47:23 10° NNW 01:52:07 54° WSW 01:53:11 45° SSW
Cosmos 1689 Rocket 3.8 01:52:15 24° E 01:53:00 28° ENE 01:55:40 10° N
COSMOS 2487 2.4 01:51:30 10° NNW 01:54:57 64° W 01:54:57 64° W
BREEZE M DEB (TANK) 3.3 01:45:29 10° WSW 01:56:47 76° NNW 02:00:08 10° ENE
NOSS 8 (H) 4.3 01:57:20 71° W 01:57:32 75° NW 02:00:59 10° NE
Sich 1 3.0 01:57:34 48° SSE 01:58:43 75° E 02:03:07 10° NNE
Cosmos 2366 rocket 4.0 01:54:40 10° N 02:00:52 80° E 02:04:12 29° SSE
CZ-4B R/B 1.8 02:04:07 46° ESE 02:04:35 51° ENE 02:07:38 10° N
SL-8 R/B 4.3 02:00:52 10° W 02:05:39 59° N 02:10:25 10° ENE
Cosmos 1707 Rocket 3.5 02:02:46 10° NNW 02:07:12 75° W 02:08:24 47° S
PSLV R/B 4.0 02:05:06 10° N 02:09:45 63° WNW 02:11:26 38° SW
CZ-4C R/B 3.1 02:09:48 57° SW 02:10:06 59° W 02:13:45 10° NNW
Cosmos 2369 Rocket 2.2 02:07:52 36° SSW 02:10:15 77° ESE 02:15:56 10° NNE
Cosmos 676 Rocket 4.5 02:10:32 30° WSW 02:12:47 51° WNW 02:17:51 10° NNE
Cosmos 1959 Rocket 4.5 02:06:43 10° N 02:13:06 78° W 02:16:25 30° S
Cosmos 1954 Rocket 4.3 02:12:18 32° SW 02:14:29 56° WNW 02:19:36 10° NNE
Cosmos 1633 Rocket 3.0 02:13:17 43° S 02:14:43 81° E 02:19:09 10° N
Cosmos 1140 Rocket 3.9 02:15:37 30° SW 02:17:51 52° WNW 02:22:52 10° NNE
Cosmos 1470 Rocket 4.3 02:16:48 28° SSE 02:18:46 47° E 02:23:05 10° NNE
Resurs 1-4 Rocket 3.3 02:15:09 10° NNE 02:19:59 34° E 02:23:17 18° SSE
Cosmos 2082 Rocket 4.2 02:20:02 10° WNW 02:22:01 12° W 02:22:39 12° WSW
Cosmos 1933 3.7 02:21:00 10° NNW 02:24:52 47° W 02:25:38 41° SW
SL-08 R/B 4.4 02:20:13 10° N 02:26:21 77° W 02:29:48 28° S
deb Kosmos-1763 4.0 02:24:58 10° NNW 02:28:43 72° WSW 02:29:40 47° S
Meteor 2-15 4.4 02:25:28 28° S 02:28:51 79° E 02:34:57 10° NNE
MOS 1 Rocket 4.5 02:24:57 10° N 02:29:31 34° WNW 02:31:43 23° WSW
Cosmos 1606 3.1 02:29:03 10° N 02:32:49 59° E 02:34:41 27° SSE
Cosmos 1666 Rocket 4.0 02:34:25 34° SW 02:35:52 49° WNW 02:40:07 10° N
H-2A R/B 3.6 02:32:11 10° NNE 02:35:55 34° E 02:37:55 21° SSE
Lacrosse 5 4.4 02:32:09 10° NW 02:36:02 21° N 02:39:55 10° NE
Cosmos 1570 Rocket 3.9 02:31:40 10° NNW 02:36:59 80° WSW 02:40:22 22° SSE
ATLAS 5 CENTAUR R/B 4.1 02:34:43 10° WNW 02:38:17 21° NNW 02:42:09 10° NNE
Cosmos 1933 Rocket 3.7 02:39:11 29° S 02:41:15 66° E 02:45:35 10° NNE
Cosmos 2263 4.1 02:39:07 30° SSW 02:42:02 85° WNW 02:47:41 10° NNE
Cosmos 1825 2.1 02:42:06 38° S 02:43:27 81° E 02:47:15 10° N
GP-B 3.1 02:40:41 10° N 02:45:09 86° E 02:47:26 29° S
Landsat 5 4.0 02:45:53 33° WSW 02:46:34 35° W 02:50:07 10° NNW
Meteor 1-26 Rocket 4.4 02:41:21 10° NNW 02:46:58 56° W 02:49:59 26° SSW
Cosmos 1833 4.1 02:43:26 10° NNW 02:49:03 90° NNE 02:54:41 10° SSE
Cosmos 2242 Rocket 3.6 02:44:50 10° NNW 02:49:20 71° W 02:51:34 29° S
Cosmos 1782 2.9 02:46:35 10° N 02:50:34 73° E 02:52:57 23° SSE
AQUA 4.0 02:46:43 10° NNE 02:51:29 69° ESE 02:54:18 24° S
USA 234 4.3 02:48:28 10° NE 02:54:33 42° NNW 03:00:37 10° W
Cosmos 1850 Rocket 4.3 02:52:25 26° SW 02:55:13 55° WNW 03:00:23 10° NNE
Meteor 1-10 Rocket 4.5 02:50:17 10° N 02:55:51 68° ENE 03:01:26 10° SSE
Cosmos 1656 Rocket 4.0 02:56:02 22° S 02:59:38 62° ESE 03:05:12 10° NNE
Cosmos 1821 Rocket 4.1 02:55:44 10° N 03:02:03 84° E 03:08:03 12° S
IRS-1C 4.3 02:57:54 10° NNE 03:03:15 72° ESE 03:07:02 20° S
NPP 3.7 03:00:24 10° N 03:05:47 75° WNW 03:09:17 22° SSW
CBERS-1 4.0 03:02:34 10° NNE 03:07:43 78° WNW 03:11:03 22° SSW
Cosmos 1408 3.3 03:06:55 28° SW 03:08:20 40° WNW 03:11:53 10° N
Cosmos 1943 Rocket 2.6 03:05:09 21° SW 03:08:40 51° WNW 03:14:07 10° NNE
ARIANE 5 R/B 3.0 03:05:03 10° NNE 03:09:57 52° E 03:14:00 15° S
ATLAS 5 CENTAUR R/B 4.3 03:09:06 17° S 03:13:27 52° ESE 03:32:59 10° NE
Cosmos 2219 4.4 03:10:51 10° NNW 03:16:17 44° ENE 03:21:39 10° SE
Cosmos 1869 Rocket 4.3 03:12:49 14° SSE 03:16:24 49° E 03:20:37 10° NNE
Cosmos 405 4.2 03:17:39 22° WSW 03:19:02 29° WNW 03:22:12 10° N
COSMOS 2455 3.3 03:14:30 10° NNW 03:20:31 64° NE 03:26:29 10° SE
CZ-2D R/B 2.1 03:15:48 10° N 03:21:05 76° WNW 03:25:00 19° SSW
Lacrosse 4 Rocket 1.9 03:19:22 20° S 03:22:13 56° ESE 03:26:36 10° NE
Cosmos 1862 3.4 03:21:46 17° S 03:24:40 71° E 03:28:38 10° NNE
Cosmos 1689 Rocket 4.3 03:24:48 14° W 03:24:48 14° W 03:26:27 10° WNW
Cosmos 1867 4.0 03:21:35 17° S 03:25:34 54° ESE 03:30:54 10° NE
Cosmos 1763 Rocket 3.4 03:20:35 10° NNW 03:25:37 63° WSW 03:30:36 10° S
PSLV R/B 3.7 03:25:02 29° SSW 03:25:42 34° S 03:28:25 10° ESE
UNK 4.2 03:22:50 20° SSW 03:25:48 44° W 03:30:18 10° NNW
SL-24 DEB 4.3 03:23:24 18° SSW 03:26:43 59° W 03:31:19 10° NNW
Cosmos 1703 Rocket 3.6 03:29:24 10° NNW 03:33:48 67° W 03:37:45 12° S
SL-16 R/B 2.9 03:29:04 15° SSW 03:33:57 45° W 03:39:51 10° NNW
ADEOS II 3.4 03:30:45 10° NNE 03:35:37 37° E 03:40:28 10° SSE
Cosmos 1814 Rocket 4.1 03:30:33 10° NNW 03:35:47 58° WSW 03:40:55 10° S
Cosmos 1818 3.7 03:32:37 10° NW 03:37:59 56° WSW 03:43:17 10° SSE
Spot 4 Rocket 4.0 03:35:29 10° NNE 03:40:39 82° WNW 03:45:13 13° SSW
Cosmos 2297 Rocket 4.1 03:42:41 10° N 03:47:47 33° NE 03:52:52 10° ESE
SL-8 R/B 3.9 03:43:40 10° WNW 03:48:31 79° NNE 03:53:21 10° ESE
Cosmos 540 Rocket 3.5 03:45:34 10° NNW 03:50:44 89° ENE 03:55:51 10° SSE
Meteor 1-4 Rocket 2.9 03:48:00 10° S 03:51:33 64° E 03:55:12 10° NNE
SL-08 R/B 4.4 03:49:18 15° SW 03:52:21 26° W 03:56:20 10° NW
IRS-1D 4.0 03:47:22 10° N 03:52:21 49° WNW 03:56:41 13° SW
Cosmos 841 Rocket 3.7 03:48:06 10° NNW 03:53:12 53° WSW 03:58:12 10° S
UNKNOWN OBJECT B 3.0 03:49:29 10° NNE 03:53:27 75° ESE 03:57:27 10° S
Cosmos 2369 Rocket 4.0 03:50:41 10° W 03:54:56 21° NW 03:59:10 10° N
Okean 1-7 3.2 03:50:53 10° NNW 03:55:12 54° W 03:59:28 10° S
Cosmos 2227 Rocket 3.7 03:50:23 10° NNW 03:55:46 41° NE 04:01:06 10° SE
Cosmos 1605 Rocket 3.9 03:51:54 10° N 03:58:00 76° W 04:04:06 10° S
Resurs 1-4 Rocket 3.0 03:54:58 10° N 03:59:48 36° WNW 04:04:21 11° SW
BREEZE-M DEB (TANK) 4.0 03:57:06 10° WNW 04:00:36 59° NNE 04:07:12 10° E
Cosmos 292 Rocket 4.3 03:57:08 10° NW 04:01:35 38° WSW 04:06:02 10° S
Helios 1A Rocket 2.9 04:02:58 10° NNE 04:07:02 87° WNW 04:11:04 10° SSW
Cosmos 1733 Rocket 3.9 04:03:13 10° S 04:07:22 50° E 04:11:35 10° NNE
Cosmos 1184 Rocket 3.1 04:05:56 10° NNW 04:09:05 45° W 04:12:13 10° S
H-2A R/B 4.0 04:08:08 10° NNW 04:11:14 21° WNW 04:14:15 10° WSW
SAR-Lupe-2 3.9 04:08:32 10° S 04:11:57 44° W 04:15:25 10° NNW
Cosmos 1354 Rocket 4.2 04:07:55 10° SSW 04:13:07 74° ESE 04:18:22 10° NNE
Cosmos 1674 Rocket 4.5 04:11:48 10° N 04:16:03 51° ENE 04:20:15 10° SSE
Cosmos 1486 Rocket 4.4 04:13:49 10° SW 04:18:59 53° WNW 04:24:13 10° NNE
Lacrosse 5 3.8 04:15:39 10° NW 04:20:16 34° NNE 04:24:54 10° E
Cosmos 1437 Rocket 3.8 04:22:35 10° SW 04:26:20 34° WNW 04:30:07 10° N
Cosmos 389 Rocket 2.7 04:24:14 10° S 04:27:50 77° E 04:31:29 10° NNE
USA 229 DEB 3.9 04:27:12 10° NW 04:34:19 65° WSW 04:41:37 10° SSE
USA 229 3.9 04:27:18 10° NW 04:34:26 66° WSW 04:41:44 10° SSE
